Notices

What's New in latest Release from April 7th, 2021:

- Updated Glossary, including Speed of Maximum Gust, and Total Hourly Precipitation

- Updated national and regional climate services offices contacts and prices information

- Addition of station inventory lists for 1981-2010, 1971-2000, and 1961-1990 Normals.

If you haven't already, please take our survey and provide feedback about our website: https://eccc.sondage-survey.ca/f/LanguageSelection.aspx?s=442ca660-fcf1-47c0-95a9-59707d6fd709

Hourly Data Report for April 03, 2016

MIRAMICHI RCS
NEW BRUNSWICK

47°00'34.000" N
65°27'54.000" W
33.00 m
8100989
71744
ACQ

Download Data

Hourly Data (April 2016)
Hourly Data Report for April 3, 2016
TIME
LST
Temp Definition
°C
Dew Point Definition
°C
Rel Hum Definition
%
Precip. Amount Definition
mm

Wind Dir Definition
10's deg

Wind Spd Definition
km/h
Visibility Definition
km
Stn Press Definition
kPa
Hmdx Definition


Wind Chill Definition


Weather Definition


00:00 1.7 1.1 96 0.7 5 4   98.56     LegendNANA
01:00 1.6 1.0 96 0.5 35 4   98.48     LegendNANA
02:00 1.4 0.9 96 0.2 35 2   98.41     LegendNANA
03:00 1.1 0.5 96 0.2 26 3   98.42     LegendNANA
04:00 1.2 0.7 96 0.0 22 3   98.30     LegendNANA
05:00 1.0 0.5 96 0.0 25 6   98.26     LegendNANA
06:00 0.1 -0.4 97 0.0 26 15   98.26     LegendNANA
07:00 0.1 -0.4 97 0.0 26 10   98.24     LegendNANA
08:00 1.5 1.0 96 0.0 25 10   98.24     LegendNANA
09:00 3.6 0.1 78 0.0 27 16   98.25     LegendNANA
10:00 3.6 -1.4 70 0.0 29 15   98.24     LegendNANA
11:00 4.6 -4.6 51 0.0 28 19   98.26     LegendNANA
12:00 5.1 -8.4 37 0.0 29 20   98.26     LegendNANA
13:00 4.3 -9.9 35 0.0 29 24   98.24     LegendNANA
14:00 3.8 -10.1 36 0.0 29 20   98.20     LegendNANA
15:00 3.4 -9.9 37 0.0 30 20   98.20     LegendNANA
16:00 1.6 -12.4 35 0.0 30 23   98.30     LegendNANA
17:00 0.2 -13.0 37 0.0 29 28   98.43     LegendNANA
18:00 -1.8 -14.2 38 0.0 29 26   98.67   -8 LegendNANA
19:00 -3.7 -14.0 45 0.0 29 33   98.90   -12 LegendNANA
20:00 -4.9 -14.5 47 0.0 29 26   99.12   -12 LegendNANA
21:00 -6.1 -15.3 48 0.0 28 34   99.29   -15 LegendNANA
22:00 -7.5 -16.3 49 0.0 28 35   99.48   -17 LegendNANA
23:00 -8.5 -17.0 50 0.0 28 28   99.64   -17 LegendNANA

Notes on Data Quality.

Legend

  • E = Estimated
  • M = Missing
  • NA = Not Available*
  • [empty] = Indicates an unobserved value
Date modified: